| time (UTC) | temp C | wind direction | speed KPH | gust KPH | rain 1hr cm | rain 24hr cm | rain mn cm | humidity % | barometer mb |
| 20260831201505 | 32 | 18 | 1.6 | 4.8 | 0.00 | 0.00 | 0.00 | 53 | 1019.0 |
| 20260831201005 | 33 | 27 | 3.2 | 8.0 | 0.00 | 0.00 | 0.00 | 52 | 1019.0 |
| 20260831200506 | 33 | 335 | 1.6 | 3.2 | 0.00 | 0.00 | 0.00 | 52 | 1019.0 |
| 20260831195506 | 33 | 104 | 3.2 | 4.8 | 0.00 | 0.00 | 0.00 | 49 | 1019.6 |
| 20260831195005 | 33 | 71 | 1.6 | 3.2 | 0.00 | 0.00 | 0.00 | 48 | 1019.6 |
| 20260831194006 | 32 | 105 | 1.6 | 4.8 | 0.00 | 0.00 | 0.00 | 53 | 1019.6 |
| 20260831193505 | 32 | 29 | 1.6 | 4.8 | 0.00 | 0.00 | 0.00 | 51 | 1019.6 |
| 20260831193004 | 33 | 22 | 3.2 | 4.8 | 0.00 | 0.00 | 0.00 | 53 | 1019.6 |
| 20260831192505 | 32 | 254 | 3.2 | 4.8 | 0.00 | 0.00 | 0.00 | 53 | 1019.6 |
| 20260831192006 | 32 | 306 | 1.6 | 4.8 | 0.00 | 0.00 | 0.00 | 54 | 1019.6 |
| 20260831191504 | 31 | 314 | 3.2 | 8.0 | 0.00 | 0.00 | 0.00 | 55 | 1019.6 |
| 20260831190504 | 32 | 9 | 3.2 | 4.8 | 0.00 | 0.00 | 0.00 | 54 | 1019.6 |
| 20260831190005 | 32 | 344 | 3.2 | 4.8 | 0.00 | 0.00 | 0.00 | 54 | 1020.0 |
| 20260831185506 | 33 | 316 | 1.6 | 4.8 | 0.00 | 0.00 | 0.00 | 53 | 1020.0 |
| 20260831184005 | 31 | 9 | 3.2 | 4.8 | 0.00 | 0.00 | 0.00 | 53 | 1020.0 |
| 20260831183505 | 31 | 310 | 4.8 | 8.0 | 0.00 | 0.00 | 0.00 | 55 | 1020.0 |
| 20260831183006 | 31 | 1 | 1.6 | 4.8 | 0.00 | 0.00 | 0.00 | 55 | 1020.0 |
| 20260831182505 | 32 | 356 | 1.6 | 4.8 | 0.00 | 0.00 | 0.00 | 57 | 1020.0 |
| 20260831182005 | 32 | 24 | 4.8 | 8.0 | 0.00 | 0.00 | 0.00 | 55 | 1020.4 |
| 20260831181505 | 31 | 21 | 4.8 | 8.0 | 0.00 | 0.00 | 0.00 | 56 | 1020.4 |
| 20260831181004 | 31 | 5 | 1.6 | 4.8 | 0.00 | 0.00 | 0.00 | 58 | 1020.4 |
| 20260831180505 | 31 | 7 | 3.2 | 4.8 | 0.00 | 0.00 | 0.00 | 56 | 1020.4 |
| 20260831175506 | 32 | 344 | 1.6 | 3.2 | 0.00 | 0.00 | 0.00 | 56 | 1020.4 |
| 20260831175006 | 31 | 242 | 3.2 | 4.8 | 0.00 | 0.00 | 0.00 | 54 | 1020.4 |
| 20260831174505 | 31 | 26 | 3.2 | 4.8 | 0.00 | 0.00 | 0.00 | 57 | 1020.5 |
| 20260831174006 | 31 | 11 | 3.2 | 4.8 | 0.00 | 0.00 | 0.00 | 58 | 1020.6 |
| 20260831173504 | 32 | 10 | 1.6 | 4.8 | 0.00 | 0.00 | 0.00 | 57 | 1020.6 |
| 20260831173005 | 31 | 58 | 1.6 | 4.8 | 0.00 | 0.00 | 0.00 | 56 | 1020.6 |
| 20260831172505 | 31 | 336 | 3.2 | 4.8 | 0.00 | 0.00 | 0.00 | 61 | 1020.6 |
| 20260831172005 | 31 | 26 | 1.6 | 4.8 | 0.00 | 0.00 | 0.00 | 59 | 1021.0 |
| 20260831171505 | 31 | 24 | 3.2 | 4.8 | 0.00 | 0.00 | 0.00 | 60 | 1021.0 |
| 20260831171005 | 32 | 30 | 4.8 | 12.9 | 0.00 | 0.00 | 0.00 | 58 | 1021.0 |
| 20260831170504 | 31 | 122 | 1.6 | 4.8 | 0.00 | 0.00 | 0.00 | 62 | 1021.0 |
| 20260831165005 | 31 | 7 | 4.8 | 8.0 | 0.00 | 0.00 | 0.00 | 61 | 1021.1 |
| 20260831164505 | 31 | 94 | 1.6 | 4.8 | 0.00 | 0.00 | 0.00 | 65 | 1021.1 |
| 20260831164005 | 31 | 9 | 3.2 | 8.0 | 0.00 | 0.00 | 0.00 | 61 | 1021.1 |
| 20260831163505 | 31 | 167 | 1.6 | 3.2 | 0.00 | 0.00 | 0.00 | 61 | 1021.1 |
| 20260831163005 | 31 | 32 | 1.6 | 4.8 | 0.00 | 0.00 | 0.00 | 66 | 1021.1 |
| 20260831162505 | 30 | 130 | 1.6 | 3.2 | 0.00 | 0.00 | 0.00 | 67 | 1021.1 |
| 20260831162005 | 30 | 26 | 1.6 | 3.2 | 0.00 | 0.00 | 0.00 | 65 | 1021.1 |
| 20260831161504 | 31 | 26 | 1.6 | 3.2 | 0.00 | 0.00 | 0.00 | 63 | 1021.1 |
| 20260831160505 | 31 | 238 | 1.6 | 3.2 | 0.00 | 0.00 | 0.00 | 64 | 1021.5 |
| 20260831155505 | 30 | 245 | 1.6 | 4.8 | 0.00 | 0.00 | 0.00 | 67 | 1021.5 |
| 20260831155005 | 31 | 172 | 1.6 | 4.8 | 0.00 | 0.00 | 0.00 | 65 | 1021.5 |
| 20260831154505 | 31 | 141 | 3.2 | 4.8 | 0.00 | 0.00 | 0.00 | 66 | 1021.5 |
| 20260831153504 | 31 | 262 | 1.6 | 4.8 | 0.00 | 0.00 | 0.00 | 68 | 1021.5 |
| 20260831153005 | 30 | 242 | 3.2 | 4.8 | 0.00 | 0.00 | 0.00 | 70 | 1021.5 |
| 20260831152505 | 30 | 25 | 1.6 | 4.8 | 0.00 | 0.00 | 0.00 | 71 | 1021.5 |
| 20260831152005 | 30 | 70 | 1.6 | 3.2 | 0.00 | 0.00 | 0.00 | 67 | 1021.5 |
| 20260831151005 | 29 | 25 | 1.6 | 3.2 | 0.00 | 0.00 | 0.00 | 72 | 1021.5 |
| 20260831150505 | 30 | 355 | 1.6 | 3.2 | 0.00 | 0.00 | 0.00 | 73 | 1021.5 |
| 20260831150005 | 28 | 34 | 1.6 | 3.2 | 0.00 | 0.00 | 0.00 | 75 | 1021.2 |
| 20260831145504 | 28 | 88 | 1.6 | 4.8 | 0.00 | 0.00 | 0.00 | 74 | 1021.2 |
| 20260831145005 | 28 | 296 | 1.6 | 4.8 | 0.00 | 0.00 | 0.00 | 75 | 1021.2 |
| 20260831144506 | 29 | 98 | 0.0 | 3.2 | 0.00 | 0.00 | 0.00 | 74 | 1021.2 |
| 20260831143504 | 28 | 137 | 1.6 | 4.8 | 0.00 | 0.00 | 0.00 | 77 | 1021.2 |
| 20260831143006 | 28 | 236 | 1.6 | 3.2 | 0.00 | 0.00 | 0.00 | 80 | 1021.2 |
| 20260831142005 | 27 | 127 | 1.6 | 4.8 | 0.00 | 0.00 | 0.00 | 78 | 1021.2 |
| 20260831141505 | 27 | 146 | 1.6 | 3.2 | 0.00 | 0.00 | 0.00 | 80 | 1021.2 |
| 20260831141004 | 27 | 126 | 0.0 | 3.2 | 0.00 | 0.00 | 0.00 | 81 | 1021.2 |
| 20260831140505 | 26 | 143 | 1.6 | 3.2 | 0.00 | 0.00 | 0.00 | 83 | 1021.2 |
| 20260831140006 | 26 | 118 | 1.6 | 4.8 | 0.00 | 0.00 | 0.00 | 85 | 1020.6 |
| 20260831135505 | 26 | 126 | 1.6 | 4.8 | 0.00 | 0.00 | 0.00 | 87 | 1020.6 |
| 20260831134505 | 24 | 212 | 0.0 | 1.6 | 0.00 | 0.00 | 0.00 | 88 | 1020.6 |
| 20260831134005 | 23 | 173 | 0.0 | 1.6 | 0.00 | 0.00 | 0.00 | 87 | 1020.6 |
| 20260831133505 | 23 | 173 | 0.0 | 1.6 | 0.00 | 0.00 | 0.00 | 87 | 1020.6 |
| 20260831133006 | 22 | 173 | 0.0 | 3.2 | 0.00 | 0.00 | 0.00 | 88 | 1020.6 |
| 20260831132505 | 22 | 173 | 0.0 | 3.2 | 0.00 | 0.00 | 0.00 | 88 | 1020.6 |
| 20260831131506 | 22 | 189 | 0.0 | 1.6 | 0.00 | 0.00 | 0.00 | 88 | 1020.6 |
| 20260831131005 | 22 | 127 | 0.0 | 3.2 | 0.00 | 0.00 | 0.00 | 88 | 1020.6 |
| 20260831130006 | 22 | 139 | 0.0 | 3.2 | 0.00 | 0.00 | 0.00 | 88 | 1020.6 |
| 20260831125505 | 22 | 139 | 1.6 | 3.2 | 0.00 | 0.00 | 0.00 | 88 | 1020.6 |
| 20260831125006 | 22 | 139 | 0.0 | 1.6 | 0.00 | 0.00 | 0.00 | 88 | 1020.6 |
| 20260831124506 | 21 | 139 | 1.6 | 3.2 | 0.00 | 0.00 | 0.00 | 88 | 1020.6 |
| 20260831124005 | 21 | 139 | 1.6 | 1.6 | 0.00 | 0.00 | 0.00 | 89 | 1020.6 |
| 20260831123505 | 21 | 139 | 0.0 | 1.6 | 0.00 | 0.00 | 0.00 | 89 | 1020.6 |
| 20260831123005 | 21 | 139 | 0.0 | 0.0 | 0.00 | 0.00 | 0.00 | 89 | 1020.6 |
| 20260831122505 | 21 | 139 | 0.0 | 0.0 | 0.00 | 0.00 | 0.00 | 89 | 1020.6 |
| 20260831122004 | 21 | 139 | 0.0 | 1.6 | 0.00 | 0.00 | 0.00 | 89 | 1020.6 |
| 20260831121505 | 21 | 139 | 0.0 | 1.6 | 0.00 | 0.00 | 0.00 | 89 | 1020.6 |
| 20260831121005 | 20 | 139 | 0.0 | 0.0 | 0.00 | 0.00 | 0.00 | 89 | 1020.6 |
| 20260831120505 | 20 | 139 | 0.0 | 0.0 | 0.00 | 0.00 | 0.00 | 89 | 1020.6 |
| 20260831120005 | 20 | 139 | 0.0 | 0.0 | 0.00 | 0.00 | 0.00 | 89 | 1020.5 |
| 20260831115506 | 20 | 139 | 0.0 | 0.0 | 0.00 | 0.00 | 0.00 | 89 | 1020.5 |
| 20260831115004 | 20 | 139 | 0.0 | 0.0 | 0.00 | 0.00 | 0.00 | 89 | 1020.5 |
| 20260831114505 | 20 | 139 | 0.0 | 0.0 | 0.00 | 0.00 | 0.00 | 89 | 1020.4 |
| 20260831114005 | 20 | 139 | 0.0 | 0.0 | 0.00 | 0.00 | 0.00 | 89 | 1020.4 |
| 20260831113506 | 20 | 139 | 0.0 | 0.0 | 0.00 | 0.00 | 0.00 | 89 | 1020.4 |
| 20260831113005 | 20 | 139 | 0.0 | 0.0 | 0.00 | 0.00 | 0.00 | 89 | 1020.3 |
| 20260831112505 | 20 | 139 | 0.0 | 0.0 | 0.00 | 0.00 | 0.00 | 89 | 1020.3 |
| 20260831112005 | 20 | 139 | 0.0 | 0.0 | 0.00 | 0.00 | 0.00 | 89 | 1020.1 |
| 20260831111505 | 20 | 139 | 0.0 | 0.0 | 0.00 | 0.00 | 0.00 | 89 | 1020.1 |
| 20260831111005 | 20 | 139 | 0.0 | 0.0 | 0.00 | 0.00 | 0.00 | 89 | 1020.1 |
| 20260831110505 | 20 | 139 | 0.0 | 0.0 | 0.00 | 0.00 | 0.00 | 89 | 1020.1 |
| 20260831110006 | 20 | 139 | 0.0 | 0.0 | 0.00 | 0.00 | 0.00 | 89 | 1020.0 |
| 20260831105505 | 20 | 139 | 0.0 | 0.0 | 0.00 | 0.00 | 0.00 | 89 | 1020.0 |
| 20260831105005 | 20 | 139 | 0.0 | 0.0 | 0.00 | 0.00 | 0.00 | 89 | 1020.0 |
| 20260831104505 | 20 | 139 | 0.0 | 0.0 | 0.00 | 0.00 | 0.00 | 89 | 1020.0 |
| 20260831104005 | 20 | 139 | 0.0 | 0.0 | 0.00 | 0.00 | 0.00 | 89 | 1019.6 |
| 20260831103505 | 20 | 139 | 0.0 | 1.6 | 0.00 | 0.00 | 0.00 | 89 | 1019.6 |
| 20260831103005 | 21 | 139 | 0.0 | 0.0 | 0.00 | 0.00 | 0.00 | 89 | 1019.6 |
| 20260831102505 | 21 | 139 | 0.0 | 0.0 | 0.00 | 0.00 | 0.00 | 89 | 1019.6 |
| 20260831102006 | 21 | 139 | 0.0 | 0.0 | 0.00 | 0.00 | 0.00 | 89 | 1019.6 |
| 20260831101505 | 21 | 139 | 0.0 | 1.6 | 0.00 | 0.00 | 0.00 | 89 | 1019.6 |
| 20260831100505 | 21 | 139 | 0.0 | 1.6 | 0.00 | 0.00 | 0.00 | 89 | 1019.6 |
| 20260831100005 | 21 | 139 | 0.0 | 0.0 | 0.00 | 0.00 | 0.00 | 89 | 1019.6 |
| 20260831095004 | 21 | 139 | 0.0 | 0.0 | 0.00 | 0.00 | 0.00 | 89 | 1019.5 |
| 20260831094505 | 21 | 139 | 0.0 | 0.0 | 0.00 | 0.00 | 0.00 | 89 | 1019.5 |
| 20260831094005 | 21 | 139 | 0.0 | 0.0 | 0.00 | 0.00 | 0.00 | 90 | 1019.5 |
| 20260831093505 | 21 | 139 | 0.0 | 0.0 | 0.00 | 0.00 | 0.00 | 89 | 1019.5 |
| 20260831091505 | 21 | 139 | 0.0 | 1.6 | 0.00 | 0.00 | 0.00 | 89 | 1019.5 |
| 20260831091005 | 21 | 139 | 0.0 | 1.6 | 0.00 | 0.00 | 0.00 | 89 | 1019.5 |
| 20260831090504 | 21 | 139 | 0.0 | 1.6 | 0.00 | 0.00 | 0.00 | 90 | 1019.5 |
| 20260831090006 | 21 | 139 | 0.0 | 0.0 | 0.00 | 0.00 | 0.00 | 90 | 1019.5 |
| 20260831085504 | 21 | 139 | 0.0 | 1.6 | 0.00 | 0.00 | 0.00 | 90 | 1019.5 |
| 20260831085006 | 21 | 139 | 0.0 | 1.6 | 0.00 | 0.00 | 0.00 | 90 | 1019.5 |
| 20260831084505 | 21 | 139 | 0.0 | 1.6 | 0.00 | 0.00 | 0.00 | 90 | 1019.5 |
| 20260831084005 | 21 | 139 | 0.0 | 0.0 | 0.00 | 0.00 | 0.00 | 90 | 1019.5 |
| 20260831083505 | 21 | 139 | 0.0 | 0.0 | 0.00 | 0.00 | 0.00 | 90 | 1019.5 |
| 20260831083006 | 21 | 139 | 0.0 | 0.0 | 0.00 | 0.00 | 0.00 | 90 | 1019.1 |
| 20260831082505 | 21 | 139 | 0.0 | 1.6 | 0.00 | 0.00 | 0.00 | 89 | 1019.1 |
| 20260831081505 | 21 | 139 | 0.0 | 0.0 | 0.00 | 0.00 | 0.00 | 89 | 1019.1 |
| 20260831081004 | 21 | 139 | 0.0 | 0.0 | 0.00 | 0.00 | 0.00 | 89 | 1019.1 |
| 20260831080505 | 21 | 139 | 0.0 | 0.0 | 0.00 | 0.00 | 0.00 | 89 | 1019.1 |
| 20260831080005 | 21 | 139 | 0.0 | 1.6 | 0.00 | 0.00 | 0.00 | 89 | 1019.0 |
| 20260831075505 | 21 | 139 | 0.0 | 1.6 | 0.00 | 0.00 | 0.00 | 89 | 1019.0 |
| 20260831075005 | 21 | 139 | 0.0 | 1.6 | 0.00 | 0.00 | 0.00 | 89 | 1019.0 |
| 20260831074506 | 21 | 139 | 0.0 | 1.6 | 0.00 | 0.00 | 0.00 | 89 | 1019.0 |
| 20260831074004 | 21 | 139 | 0.0 | 0.0 | 0.00 | 0.00 | 0.00 | 89 | 1019.0 |
| 20260831073505 | 21 | 139 | 0.0 | 0.0 | 0.00 | 0.00 | 0.00 | 89 | 1019.0 |
| 20260831073005 | 21 | 139 | 0.0 | 0.0 | 0.00 | 0.00 | 0.00 | 89 | 1019.0 |
| 20260831072505 | 21 | 139 | 0.0 | 0.0 | 0.00 | 0.00 | 0.00 | 89 | 1019.0 |
| 20260831072005 | 21 | 139 | 0.0 | 0.0 | 0.00 | 0.00 | 0.00 | 89 | 1019.0 |
| 20260831071505 | 21 | 139 | 0.0 | 0.0 | 0.00 | 0.00 | 0.00 | 89 | 1019.0 |
| 20260831071006 | 21 | 139 | 0.0 | 0.0 | 0.00 | 0.00 | 0.00 | 89 | 1019.0 |
| 20260831070505 | 22 | 139 | 0.0 | 0.0 | 0.00 | 0.00 | 0.00 | 89 | 1019.0 |
| 20260831070005 | 22 | 139 | 0.0 | 0.0 | 0.00 | 0.00 | 0.00 | 89 | 1018.9 |
| 20260831065505 | 22 | 139 | 0.0 | 0.0 | 0.00 | 0.00 | 0.00 | 89 | 1018.9 |
| 20260831065005 | 22 | 139 | 0.0 | 0.0 | 0.00 | 0.00 | 0.00 | 89 | 1019.0 |
| 20260831064005 | 22 | 139 | 0.0 | 1.6 | 0.00 | 0.00 | 0.00 | 89 | 1019.1 |
| 20260831063505 | 22 | 139 | 0.0 | 0.0 | 0.00 | 0.00 | 0.00 | 89 | 1019.1 |
| 20260831063005 | 22 | 139 | 0.0 | 0.0 | 0.00 | 0.00 | 0.00 | 89 | 1019.2 |
| 20260831062505 | 22 | 139 | 0.0 | 0.0 | 0.00 | 0.00 | 0.00 | 89 | 1019.2 |
| 20260831062005 | 22 | 139 | 0.0 | 0.0 | 0.00 | 0.00 | 0.00 | 89 | 1019.1 |
| 20260831061505 | 22 | 139 | 0.0 | 0.0 | 0.00 | 0.00 | 0.00 | 89 | 1019.1 |
| 20260831061005 | 22 | 139 | 0.0 | 0.0 | 0.00 | 0.00 | 0.00 | 89 | 1019.1 |
| 20260831055004 | 22 | 139 | 0.0 | 0.0 | 0.00 | 0.00 | 0.00 | 89 | 1019.4 |
| 20260831054505 | 22 | 139 | 0.0 | 0.0 | 0.00 | 0.00 | 0.00 | 89 | 1019.4 |
| 20260831054005 | 22 | 139 | 0.0 | 0.0 | 0.00 | 0.00 | 0.00 | 89 | 1019.4 |
| 20260831053005 | 22 | 139 | 0.0 | 0.0 | 0.00 | 0.00 | 0.00 | 89 | 1019.2 |
| 20260831052005 | 22 | 139 | 0.0 | 0.0 | 0.00 | 0.00 | 0.00 | 89 | 1019.2 |
| 20260831051504 | 22 | 139 | 0.0 | 0.0 | 0.00 | 0.00 | 0.00 | 89 | 1019.2 |
| 20260831051005 | 22 | 139 | 0.0 | 0.0 | 0.00 | 0.00 | 0.00 | 89 | 1019.4 |
| 20260831050505 | 22 | 139 | 0.0 | 0.0 | 0.00 | 0.00 | 0.00 | 89 | 1019.4 |
| 20260831050005 | 23 | 139 | 0.0 | 0.0 | 0.00 | 0.00 | 0.00 | 89 | 1019.5 |
| 20260831045505 | 23 | 139 | 0.0 | 0.0 | 0.00 | 0.00 | 0.00 | 89 | 1019.5 |
| 20260831045005 | 23 | 139 | 0.0 | 0.0 | 0.00 | 0.00 | 0.00 | 89 | 1019.5 |
| 20260831044505 | 23 | 139 | 0.0 | 0.0 | 0.00 | 0.00 | 0.00 | 88 | 1019.5 |
| 20260831044005 | 23 | 139 | 0.0 | 1.6 | 0.00 | 0.00 | 0.00 | 88 | 1019.5 |
| 20260831043005 | 23 | 139 | 0.0 | 0.0 | 0.00 | 0.00 | 0.00 | 88 | 1019.5 |
| 20260831042506 | 23 | 139 | 0.0 | 0.0 | 0.00 | 0.00 | 0.00 | 88 | 1019.5 |
| 20260831042005 | 23 | 139 | 0.0 | 0.0 | 0.00 | 0.00 | 0.00 | 88 | 1019.5 |
| 20260831041505 | 23 | 139 | 0.0 | 0.0 | 0.00 | 0.00 | 0.00 | 88 | 1019.5 |
| 20260831040506 | 23 | 139 | 0.0 | 0.0 | 0.00 | 0.00 | 0.00 | 88 | 1019.5 |
| 20260831040005 | 23 | 139 | 0.0 | 0.0 | 0.00 | 0.00 | 0.00 | 88 | 1019.4 |
| 20260831035504 | 23 | 139 | 0.0 | 1.6 | 0.00 | 0.00 | 0.00 | 88 | 1019.4 |
| 20260831035005 | 23 | 139 | 0.0 | 0.0 | 0.00 | 0.00 | 0.00 | 88 | 1019.4 |
| 20260831034505 | 23 | 139 | 0.0 | 0.0 | 0.00 | 0.00 | 0.00 | 88 | 1019.4 |
| 20260831034005 | 23 | 139 | 0.0 | 1.6 | 0.00 | 0.00 | 0.00 | 87 | 1019.4 |
| 20260831033505 | 23 | 139 | 0.0 | 0.0 | 0.00 | 0.00 | 0.00 | 87 | 1019.4 |
| 20260831033005 | 24 | 139 | 0.0 | 0.0 | 0.00 | 0.00 | 0.00 | 87 | 1019.5 |
| 20260831032505 | 24 | 139 | 0.0 | 0.0 | 0.00 | 0.00 | 0.00 | 87 | 1019.5 |
| 20260831032006 | 24 | 139 | 0.0 | 0.0 | 0.00 | 0.00 | 0.00 | 87 | 1019.5 |
| 20260831031505 | 24 | 139 | 0.0 | 0.0 | 0.00 | 0.00 | 0.00 | 87 | 1019.5 |
| 20260831031005 | 24 | 139 | 0.0 | 0.0 | 0.00 | 0.00 | 0.00 | 87 | 1019.5 |
| 20260831030505 | 24 | 139 | 0.0 | 0.0 | 0.00 | 0.00 | 0.00 | 87 | 1019.5 |
| 20260831030004 | 24 | 139 | 0.0 | 0.0 | 0.00 | 0.00 | 0.00 | 87 | 1019.5 |
| 20260831025505 | 25 | 139 | 0.0 | 0.0 | 0.00 | 0.00 | 0.00 | 86 | 1019.5 |
| 20260831024504 | 25 | 139 | 0.0 | 0.0 | 0.00 | 0.00 | 0.00 | 86 | 1019.5 |
| 20260831023504 | 25 | 139 | 0.0 | 0.0 | 0.00 | 0.00 | 0.00 | 85 | 1019.5 |
| 20260831023005 | 25 | 139 | 0.0 | 0.0 | 0.00 | 0.00 | 0.00 | 85 | 1019.5 |
| 20260831022505 | 25 | 139 | 0.0 | 0.0 | 0.00 | 0.00 | 0.00 | 85 | 1019.5 |
| 20260831022005 | 25 | 139 | 0.0 | 0.0 | 0.00 | 0.00 | 0.00 | 85 | 1019.5 |
| 20260831021505 | 25 | 139 | 0.0 | 0.0 | 0.00 | 0.00 | 0.00 | 84 | 1019.5 |
| 20260831021005 | 25 | 139 | 0.0 | 0.0 | 0.00 | 0.00 | 0.00 | 84 | 1019.6 |
| 20260831020505 | 25 | 139 | 0.0 | 0.0 | 0.00 | 0.00 | 0.00 | 84 | 1019.6 |
| 20260831020005 | 26 | 139 | 0.0 | 0.0 | 0.00 | 0.00 | 0.00 | 84 | 1019.5 |
| 20260831015505 | 26 | 139 | 0.0 | 0.0 | 0.00 | 0.00 | 0.00 | 84 | 1019.5 |
| 20260831015005 | 26 | 139 | 0.0 | 0.0 | 0.00 | 0.00 | 0.00 | 83 | 1019.5 |
| 20260831014505 | 26 | 139 | 0.0 | 0.0 | 0.00 | 0.00 | 0.00 | 83 | 1019.4 |
| 20260831014005 | 26 | 139 | 0.0 | 0.0 | 0.00 | 0.00 | 0.00 | 83 | 1019.3 |
| 20260831013005 | 26 | 139 | 0.0 | 0.0 | 0.00 | 0.00 | 0.00 | 82 | 1019.1 |
| 20260831012506 | 26 | 139 | 0.0 | 0.0 | 0.00 | 0.00 | 0.00 | 81 | 1019.1 |
| 20260831011506 | 27 | 139 | 0.0 | 0.0 | 0.00 | 0.00 | 0.00 | 81 | 1018.9 |
| 20260831011005 | 27 | 139 | 0.0 | 0.0 | 0.00 | 0.00 | 0.00 | 80 | 1018.9 |
| 20260831010505 | 27 | 139 | 0.0 | 0.0 | 0.00 | 0.00 | 0.00 | 80 | 1018.9 |
| 20260831010005 | 27 | 139 | 0.0 | 0.0 | 0.00 | 0.00 | 0.00 | 79 | 1018.7 |
| 20260831005505 | 27 | 139 | 0.0 | 0.0 | 0.00 | 0.00 | 0.00 | 79 | 1018.7 |
| 20260831005006 | 27 | 139 | 0.0 | 0.0 | 0.00 | 0.00 | 0.00 | 78 | 1018.6 |
| 20260831004505 | 27 | 139 | 0.0 | 0.0 | 0.00 | 0.00 | 0.00 | 78 | 1018.6 |
| 20260831004005 | 28 | 139 | 0.0 | 0.0 | 0.00 | 0.00 | 0.00 | 77 | 1018.5 |
| 20260831003005 | 28 | 139 | 0.0 | 0.0 | 0.00 | 0.00 | 0.00 | 76 | 1018.5 |
| 20260831002504 | 28 | 139 | 0.0 | 0.0 | 0.00 | 0.00 | 0.00 | 75 | 1018.5 |
| 20260831001505 | 29 | 139 | 0.0 | 0.0 | 0.00 | 0.00 | 0.00 | 73 | 1018.4 |
| 20260831000505 | 30 | 139 | 0.0 | 0.0 | 0.00 | 0.00 | 0.00 | 71 | 1018.4 |
| 20260830235505 | 30 | 139 | 0.0 | 0.0 | 0.00 | 0.00 | 0.00 | 69 | 1018.4 |
| 20260830235006 | 30 | 139 | 0.0 | 0.0 | 0.00 | 0.00 | 0.00 | 68 | 1018.4 |
| 20260830234506 | 30 | 140 | 0.0 | 0.0 | 0.00 | 0.00 | 0.00 | 65 | 1018.4 |
| 20260830234004 | 30 | 140 | 0.0 | 1.6 | 0.00 | 0.00 | 0.00 | 64 | 1018.4 |
| 20260830233005 | 30 | 140 | 0.0 | 3.2 | 0.00 | 0.00 | 0.00 | 63 | 1018.4 |
| 20260830232505 | 30 | 137 | 1.6 | 3.2 | 0.00 | 0.00 | 0.00 | 63 | 1018.4 |
| 20260830231006 | 31 | 145 | 0.0 | 3.2 | 0.00 | 0.00 | 0.00 | 62 | 1018.4 |
| 20260830230506 | 31 | 145 | 0.0 | 1.6 | 0.00 | 0.00 | 0.00 | 62 | 1018.4 |
| 20260830230005 | 31 | 145 | 0.0 | 3.2 | 0.00 | 0.00 | 0.00 | 61 | 1018.5 |
| 20260830225506 | 31 | 145 | 0.0 | 1.6 | 0.00 | 0.00 | 0.00 | 60 | 1018.5 |
| 20260830225005 | 31 | 145 | 1.6 | 3.2 | 0.00 | 0.00 | 0.00 | 60 | 1018.5 |
| 20260830224505 | 31 | 145 | 0.0 | 4.8 | 0.00 | 0.00 | 0.00 | 58 | 1018.5 |
| 20260830224006 | 31 | 145 | 1.6 | 4.8 | 0.00 | 0.00 | 0.00 | 58 | 1018.5 |
| 20260830223505 | 31 | 145 | 0.0 | 1.6 | 0.00 | 0.00 | 0.00 | 59 | 1018.5 |
| 20260830222504 | 31 | 300 | 1.6 | 3.2 | 0.00 | 0.00 | 0.00 | 58 | 1018.4 |
| 20260830222005 | 31 | 236 | 0.0 | 3.2 | 0.00 | 0.00 | 0.00 | 58 | 1018.4 |
| 20260830221505 | 31 | 164 | 1.6 | 4.8 | 0.00 | 0.00 | 0.00 | 57 | 1018.4 |
| 20260830221006 | 31 | 160 | 1.6 | 4.8 | 0.00 | 0.00 | 0.00 | 59 | 1018.4 |
| 20260830220505 | 31 | 103 | 1.6 | 3.2 | 0.00 | 0.00 | 0.00 | 59 | 1018.4 |
| 20260830220005 | 31 | 180 | 3.2 | 8.0 | 0.00 | 0.00 | 0.00 | 58 | 1018.4 |
| 20260830215505 | 31 | 159 | 0.0 | 1.6 | 0.00 | 0.00 | 0.00 | 58 | 1018.4 |
| 20260830215005 | 31 | 150 | 1.6 | 4.8 | 0.00 | 0.00 | 0.00 | 58 | 1018.4 |
| 20260830214505 | 32 | 184 | 1.6 | 4.8 | 0.00 | 0.00 | 0.00 | 59 | 1018.4 |
| 20260830214005 | 32 | 125 | 3.2 | 4.8 | 0.00 | 0.00 | 0.00 | 58 | 1018.4 |
| 20260830213505 | 32 | 160 | 1.6 | 4.8 | 0.00 | 0.00 | 0.00 | 58 | 1018.4 |
| 20260830213006 | 32 | 314 | 1.6 | 4.8 | 0.00 | 0.00 | 0.00 | 59 | 1018.4 |
| 20260830212506 | 32 | 111 | 1.6 | 4.8 | 0.00 | 0.00 | 0.00 | 57 | 1018.4 |
| 20260830212005 | 32 | 105 | 1.6 | 4.8 | 0.00 | 0.00 | 0.00 | 57 | 1018.5 |
| 20260830211505 | 32 | 172 | 1.6 | 3.2 | 0.00 | 0.00 | 0.00 | 57 | 1018.5 |
| 20260830211006 | 32 | 172 | 3.2 | 9.7 | 0.00 | 0.00 | 0.00 | 58 | 1018.6 |
| 20260830210506 | 32 | 75 | 3.2 | 8.0 | 0.00 | 0.00 | 0.00 | 57 | 1018.6 |
| 20260830210005 | 32 | 112 | 3.2 | 4.8 | 0.00 | 0.00 | 0.00 | 56 | 1018.5 |
| 20260830205505 | 32 | 132 | 3.2 | 8.0 | 0.00 | 0.00 | 0.00 | 57 | 1018.5 |
| 20260830205005 | 32 | 338 | 1.6 | 4.8 | 0.00 | 0.00 | 0.00 | 56 | 1018.7 |
| 20260830204005 | 31 | 332 | 1.6 | 8.0 | 0.00 | 0.00 | 0.00 | 57 | 1018.8 |
| 20260830203505 | 32 | 83 | 3.2 | 8.0 | 0.00 | 0.00 | 0.00 | 58 | 1018.8 |
| 20260830203005 | 32 | 41 | 0.0 | 4.8 | 0.00 | 0.00 | 0.00 | 57 | 1018.9 |
| 20260830202505 | 31 | 64 | 1.6 | 4.8 | 0.00 | 0.00 | 0.00 | 60 | 1018.9 |